Location: Observatoire de Paris
(48.8363°N, 2.3365°E)
Time: 02:44:10
(UTC+01:00)

Vanguard 3 - Pass Details

Date: 07 August 2021
Orbit: 510 x 3260 km, 33.3° (Epoch: 18 September)

Event Time Altitude Azimuth Distance (km) Brightness Sun altitude
Rises 22:34:01 0° 272° (W) 6,379 12.3 -17.7°
Reaches altitude 10° 22:38:50 10° 262° (W) 5,680 11.8 -18.2°
Maximum altitude 22:52:41 28° 213° (SSW) 4,800 10.8 -19.4°
Enters shadow 23:02:33 19° 176° (S) 5,408 10.8 -20.3°
